Regional Weather Roundup
Issued by NWS Mobile, AL

Home | Current Version | Previous Version | Text Only | Print | Product List | Glossary On
Versions: 1 2 3 4 5 6 7 8 9 10 11 12 13 14 15 16 17 18 19 20 21 22 23 24 25 26 27 28 29 30 31 32 33 34 35 36 37 38 39 40 41 42 43 44 45 46 47 48 49 50
000
ASUS44 KMOB 311012
RWRMOB
REGIONAL WEATHER ROUNDUP
NATIONAL WEATHER SERVICE MOBILE AL
500 AM CDT TUE MAY 31 2016

NOTE: "FAIR" INDICATES FEW OR NO CLOUDS BELOW 12,000 FEET WITH NO
      SIGNIFICANT WEATHER AND/OR OBSTRUCTIONS TO VISIBILITY.

  * THESE STATIONS ARE PART OF THE UNIVERSITY OF SOUTH ALABAMA
    MESONET AND ARE NOT UNDER NWS OR FAA QUALITY CONTROL.

ALZ061>064-311100-
COASTAL ALABAMA

CITY           SKY/WX    TMP DP  RH WIND       PRES   REMARKS
MOBILE REG APT CLEAR     69  69 100 W3        29.93S
BROOKLEY FIELD CLEAR     72  70  93 CALM      29.93R
USA CAMPUS*    NOT AVBL
DOG RIVER*     NOT AVBL


CITY           SKY/WX    TMP DP  RH WIND       PRES   REMARKS
MOUNT VERNON*  NOT AVBL
SARALAND*      NOT AVBL
BAY MINETTE*   NOT AVBL
LOXLEY*        NOT AVBL
ROBERTSDALE*   NOT AVBL
FAIRHOPE*      NOT AVBL
ELBERTA*       NOT AVBL
FOLEY*         NOT AVBL
GRAND BAY*     NOT AVBL
DAUPHIN ISLND* NOT AVBL
BON SCOUR NWR* NOT AVBL
GULF SHORES    FOG       71  71 100 CALM      29.92S VSB 3/4

$$

ALZ051>060-311100-
INTERIOR SOUTHWEST AND SOUTH CENTRAL ALABAMA

CITY           SKY/WX    TMP DP  RH WIND       PRES   REMARKS
GREENVILLE     CLEAR     70  65  84 CALM      29.91S
EVERGREEN      CLEAR     66  64  93 CALM      29.92F
CASTLEBERRY*   NOT AVBL
ATMORE*        NOT AVBL
DIXIE*         NOT AVBL
ANDALUSIA/OPP  CLEAR     72  66  81 CALM      29.92S
ANDALUSIA*     NOT AVBL
FLORALA APT    CLEAR     68  66  93 CALM      29.93S
FLORALA*       NOT AVBL

$$

FLZ001>006-311100-
WESTERN FLORIDA PANHANDLE

CITY           SKY/WX    TMP DP  RH WIND       PRES   REMARKS
PENSACOLA      CLEAR     73  70  90 CALM      29.91S
NAS PENSACOLA  NOT AVBL
MILTON         NOT AVBL
WHTNG S FIELD  CLEAR     68  65  90 CALM      29.92R FOG


CITY           SKY/WX    TMP DP  RH WIND       PRES   REMARKS
WALNUT HILL*   NOT AVBL
JAY*           NOT AVBL
DUKE FIELD     CLEAR     70  69  95 NW3       29.91S
CRESTVIEW      CLEAR     67  65  93 CALM      29.93S
VALPARAISO     CLEAR     72  70  95 CALM      29.91S
DESTIN         PTCLDY    79  72  79 CALM      29.91S

$$

MSZ076-079-311100-
INTERIOR SOUTHEAST MISSISSIPPI

CITY           SKY/WX    TMP DP  RH WIND       PRES   REMARKS
LEAKESVILLE*   NOT AVBL
AGRICOLA*      NOT AVBL

$$

MARINE OBSERVATIONS

STATION/POSITION TIME  TEMP    WIND        PRES    WAVE
                       AIR SEA DIR/SP/G            HT/PER
                 (UTC) (F)     (DEG/KT/KT) (MB)    (FT/S)
PASCAGOULA       0900   76     330/  4/  5 1012.6S
PETIT BOIS ISLND 0900   80     280/  9/ 11 1013.4F
GRAND BAY        0800   77     320/  4     1014.0F
KATRINA CUT      0900   80     320/  8     1013.5S
CEDAR POINT      0900   78     340/  5     1012.9S
E DAUPHIN ISLAND 1000   79     290/  6/  7 1012.7S
MIDDLE BAY LIGHT 0900   79     300/  9     1012.9F
USCG MOBILE BAY  0900   76 81  290/  2/  3 1013.4F
STATE DOCKS      0900   75 82              1012.8F
MEAHER PARK      0900   75     360/  2     1012.5S
WEEKS BAY        0800   74                   N/A
FORT MORGAN      0900   81     320/  8/ 10 1012.4S
12 S ORANGE BCH  0950   81 82              1012.2R   1/ 3
PENSACOLA BAY    0900      81  360/  1/  2 1013.0F
64 S DAUPHIN ISL 0900   80 81  260/  6/  8 1013.3R

$$

SELECTED LOCATIONS ACROSS THE REGION

CITY           SKY/WX    TMP DP  RH WIND       PRES   REMARKS
NEW ORLEANS    PTCLDY    73  70  90 CALM      29.93R
GULFPORT       CLEAR     73  71  93 CALM      29.91R
PASCAGOULA AP  CLOUDY    68  67  96 CALM      29.92R
PASCAGOULA*    NOT AVBL
HATTIESBURG    CLEAR     72  68  87 CALM      29.93S
LAUREL         CLEAR     70  64  83 CALM      29.94S
MERIDIAN       CLEAR     69  64  84 S6        29.92R
JACKSON        PTCLDY    68  65  90 SW3       29.93R
MONTGOMERY     CLEAR     70  65  84 CALM      29.91S
TROY           PTCLDY    67  65  93 CALM      29.93R
KINSTON*       NOT AVBL
GENEVA*        NOT AVBL
ASHFORD*       NOT AVBL
DOTHAN         CLEAR     72  67  84 W5        29.95R
PANAMA CITY    FOG       71  70  96 CALM      29.91R VSB 1/4

$$




USA.gov is the U.S. government's official web portal to all federal, state and local government web resources and services.